Location: Unspecified
(0.0000°N, 0.0000°E)
Time: 15:34:53
(UTC+00:00)

A-11 Canister half - All Passes

Search period start: 17 September 2014 00:00
Search period end: 27 September 2014 00:00
Orbit: 1518 x 1682 km, 47.2° (Epoch: 16 September)

Date Brightness Start Highest point End Pass type
(mag) Time Alt. Az. Time Alt. Az. Time Alt. Az.
17 Sep - 01:14:11 10° SW 01:23:13 52° NW 01:32:06 10° NNE visible
17 Sep - 09:59:46 10° NNE 10:03:33 13° NE 10:07:21 10° ENE daylight
17 Sep - 11:59:05 10° NNW 12:08:54 71° NE 12:18:58 10° SE daylight
17 Sep - 14:06:12 10° W 14:13:57 25° SW 14:21:50 10° S daylight
17 Sep - 22:47:35 10° S 22:55:36 30° SE 23:03:22 10° ENE night (unlit)
18 Sep - 00:51:11 10° SW 01:00:22 57° NW 01:09:22 10° NNE night (unlit)
18 Sep - 09:38:10 10° NNE 09:40:34 11° NE 09:42:59 10° ENE daylight
18 Sep - 11:36:17 10° NNW 11:46:00 66° NE 11:56:00 10° SE daylight
18 Sep - 13:42:57 10° WNW 13:51:00 28° SW 13:59:14 10° S daylight
18 Sep - 22:24:57 10° S 22:32:42 27° SE 22:40:12 10° ENE night (unlit)
19 Sep - 00:28:12 10° SW 00:37:31 62° NW 00:46:36 10° NNE night (unlit)
19 Sep - 11:13:30 10° NNW 11:23:07 60° NE 11:33:00 10° SE daylight
19 Sep - 13:19:44 10° WNW 13:28:04 30° SW 13:36:35 10° S daylight
19 Sep - 22:02:21 10° S 22:09:47 25° SE 22:17:00 10° E night (unlit)
20 Sep - 00:05:14 10° SW 00:14:40 67° NW 00:23:50 10° NNE night (unlit)
20 Sep - 02:18:06 10° NW 02:19:55 11° NW 02:21:43 10° NNW night (unlit)
20 Sep - 10:50:44 10° NNW 11:00:13 55° NE 11:09:59 10° SE daylight
20 Sep - 12:56:34 10° WNW 13:05:08 33° SW 13:13:55 10° SSE daylight
20 Sep - 21:39:46 10° S 21:46:52 23° SE 21:53:45 10° E visible
20 Sep - 23:42:18 10° SW 23:51:48 73° NW 00:01:03 10° NNE night (unlit)
21 Sep - 01:53:38 10° WNW 01:56:57 12° NW 02:00:16 10° NNW night (unlit)
21 Sep - 10:27:59 10° NNW 10:37:20 51° NE 10:46:57 10° ESE daylight
21 Sep - 12:33:27 10° WNW 12:42:13 36° SW 12:51:13 10° SSE daylight
21 Sep - 21:17:14 10° S 21:23:56 21° SE 21:30:27 10° E visible
21 Sep - 23:19:22 10° SW 23:28:57 80° NW 23:38:15 10° NE night (unlit)
22 Sep - 01:29:43 10° WNW 01:34:01 14° NW 01:38:18 10° NNW night (unlit)
22 Sep - 10:05:16 10° NNW 10:14:26 47° NE 10:23:53 10° ESE daylight
22 Sep - 12:10:21 10° WNW 12:19:18 39° SW 12:28:30 10° SSE daylight
22 Sep - 20:54:45 10° S 21:01:00 19° SE 21:07:05 10° E visible
22 Sep - 22:56:28 10° SW 23:06:06 86° NW 23:15:25 10° NE night (unlit)
23 Sep - 01:06:01 10° W 01:11:05 16° NW 01:16:07 10° NNW night (unlit)
23 Sep - 09:42:34 10° NNW 09:51:33 43° NE 10:00:47 10° ESE daylight
23 Sep - 11:47:17 10° WNW 11:56:23 43° SW 12:05:46 10° SSE daylight
23 Sep - 20:32:19 10° S 20:38:03 17° SE 20:43:38 10° E visible
23 Sep - 22:33:34 10° SW 22:43:15 88° SE 22:52:35 10° NE night (unlit)
24 Sep - 00:42:27 10° W 00:48:09 18° NW 00:53:49 10° N night (unlit)
24 Sep - 09:19:53 10° NNW 09:28:39 39° NE 09:37:41 10° ESE daylight
24 Sep - 11:24:15 10° WNW 11:33:28 47° SW 11:43:00 10° SSE daylight
24 Sep - 20:09:58 10° SSE 20:15:05 15° SE 20:20:06 10° ESE visible
24 Sep - 22:10:41 10° SW 22:20:23 81° SE 22:29:44 10° NE visible
25 Sep - 00:19:00 10° W 00:25:14 20° NW 00:31:26 10° N night (unlit)
25 Sep - 08:57:13 10° NNW 09:05:46 36° NE 09:14:32 10° ESE daylight
25 Sep - 11:01:14 10° WNW 11:10:34 51° SW 11:20:14 10° SSE daylight
25 Sep - 19:47:44 10° SSE 19:52:07 14° SE 19:56:25 10° ESE visible
25 Sep - 21:47:50 10° SW 21:57:31 75° SE 22:06:51 10° NE visible
25 Sep - 23:55:36 10° W 00:02:20 22° NW 00:08:59 10° N night (unlit)
26 Sep - 08:34:35 10° N 08:42:52 33° NE 08:51:21 10° ESE daylight
26 Sep - 10:38:15 10° NW 10:47:40 55° SW 10:57:26 10° SSE daylight
26 Sep - 19:25:43 10° SSE 19:29:08 12° SE 19:32:31 10° ESE visible
26 Sep - 21:24:59 10° SSW 21:34:40 70° SE 21:43:58 10° NE visible
26 Sep - 23:32:16 10° W 23:39:26 24° NW 23:46:29 10° N night (unlit)
